Location: Unspecified
(0.0000°N, 0.0000°E)
Time: 12:57:23
(UTC+00:00)

SRMSAT - Pass Details

Date: 11 December 2017
Orbit: 848 x 866 km, 20.0° (Epoch: 22 July)

Event Time Altitude Azimuth Distance (km) Brightness Sun altitude
Exits shadow 02:42:23 16° 97° (E) 2,065 ? -42.9°
Drops below altitude 10° 02:43:41 10° 91° (E) 2,487 ? -42.6°
Sets 02:46:25 0° 84° (E) 3,425 ? -42.1°
